Time,TemperatureF,DewpointF,PressureIn,WindDirection,WindDirectionDegrees,WindSpeedMPH,WindSpeedGustMPH,Humidity,HourlyPrecipIn,Conditions,Clouds,dailyrainin,SoftwareType,DateUTC
2013-03-11 00:00:00,31.3,28.8,29.78,WNW,293,2.0,6.0,90,0.00,,,0.00,WUHU216HW,2013-03-11 05:00:00,
2013-03-11 00:05:00,31.5,29.3,29.78,WNW,293,1.8,2.2,91,0.00,,,0.00,WUHU216HW,2013-03-11 05:05:00,
2013-03-11 00:10:00,31.3,28.8,29.78,WNW,293,3.4,4.0,90,0.00,,,0.00,WUHU216HW,2013-03-11 05:10:00,
2013-03-11 00:15:00,31.3,28.8,29.78,WNW,293,1.5,4.0,90,0.00,,,0.00,WUHU216HW,2013-03-11 05:15:00,
2013-03-11 00:20:00,31.3,29.1,29.78,WNW,293,5.1,8.3,91,0.00,,,0.00,WUHU216HW,2013-03-11 05:20:00,
2013-03-11 00:25:00,31.3,28.5,29.78,WNW,293,4.1,8.3,89,0.00,,,0.00,WUHU216HW,2013-03-11 05:25:00,
2013-03-11 00:30:00,31.3,28.8,29.78,WNW,293,3.7,5.8,90,0.00,,,0.00,WUHU216HW,2013-03-11 05:30:00,
2013-03-11 00:35:00,31.3,28.8,29.78,WNW,293,3.3,4.5,90,0.00,,,0.00,WUHU216HW,2013-03-11 05:35:00,
2013-03-11 00:40:00,31.1,28.6,29.77,WNW,293,2.2,5.4,90,0.00,,,0.00,WUHU216HW,2013-03-11 05:40:00,
2013-03-11 00:45:00,31.1,28.6,29.77,WNW,293,3.4,5.4,90,0.00,,,0.00,WUHU216HW,2013-03-11 05:45:00,
2013-03-11 00:50:00,31.1,28.6,29.77,WNW,293,2.2,3.4,90,0.00,,,0.00,WUHU216HW,2013-03-11 05:50:00,
2013-03-11 00:55:00,31.0,28.4,29.77,WNW,293,5.4,5.4,90,0.00,,,0.00,WUHU216HW,2013-03-11 05:55:00,
2013-03-11 01:00:00,31.0,28.4,29.77,WNW,293,2.9,5.4,90,0.00,,,0.00,WUHU216HW,2013-03-11 06:00:00,
2013-03-11 01:05:00,30.8,28.3,29.77,WNW,293,2.8,5.4,90,0.00,,,0.00,WUHU216HW,2013-03-11 06:05:00,
2013-03-11 01:10:00,30.6,28.1,29.77,WNW,293,6.7,6.9,90,0.00,,,0.00,WUHU216HW,2013-03-11 06:10:00,
2013-03-11 01:15:00,30.6,28.1,29.77,WNW,293,5.4,6.9,90,0.00,,,0.00,WUHU216HW,2013-03-11 06:15:00,
2013-03-11 01:20:00,30.6,27.8,29.77,WNW,293,3.7,5.4,89,0.00,,,0.00,WUHU216HW,2013-03-11 06:20:00,
2013-03-11 01:25:00,30.6,27.8,29.76,WNW,293,3.4,5.1,89,0.00,,,0.00,WUHU216HW,2013-03-11 06:25:00,
2013-03-11 01:30:00,30.4,27.6,29.77,WNW,293,4.8,6.7,89,0.00,,,0.00,WUHU216HW,2013-03-11 06:30:00,
2013-03-11 01:35:00,30.4,27.9,29.77,WNW,293,4.6,6.7,90,0.00,,,0.00,WUHU216HW,2013-03-11 06:35:00,
2013-03-11 01:40:00,30.2,27.7,29.77,WNW,293,5.6,6.0,90,0.00,,,0.00,WUHU216HW,2013-03-11 06:40:00,
2013-03-11 01:45:00,30.1,27.3,29.77,WNW,293,4.7,6.0,89,0.00,,,0.00,WUHU216HW,2013-03-11 06:45:00,
2013-03-11 01:50:00,29.9,27.1,29.76,WNW,293,3.7,6.0,89,0.00,,,0.00,WUHU216HW,2013-03-11 06:50:00,
2013-03-11 01:55:00,29.9,27.4,29.76,WNW,293,5.1,5.6,90,0.00,,,0.00,WUHU216HW,2013-03-11 06:55:00,
2013-03-11 02:00:00,29.9,27.1,29.76,WNW,293,5.6,6.0,89,0.00,,,0.00,WUHU216HW,2013-03-11 07:00:00,
2013-03-11 02:05:00,29.9,26.8,29.76,WNW,293,4.5,6.0,88,0.00,,,0.00,WUHU216HW,2013-03-11 07:05:00,
2013-03-11 02:10:00,29.7,26.9,29.76,WNW,293,4.7,4.7,89,0.00,,,0.00,WUHU216HW,2013-03-11 07:10:00,
2013-03-11 02:15:00,29.7,26.9,29.76,WNW,293,5.4,5.4,89,0.00,,,0.00,WUHU216HW,2013-03-11 07:15:00,
2013-03-11 02:20:00,29.5,26.5,29.76,WNW,293,2.7,5.4,88,0.00,,,0.00,WUHU216HW,2013-03-11 07:20:00,
2013-03-11 02:25:00,29.3,26.3,29.75,WNW,293,4.7,5.6,88,0.00,,,0.00,WUHU216HW,2013-03-11 07:25:00,
2013-03-11 02:30:00,29.3,26.3,29.75,WNW,293,5.1,5.6,88,0.00,,,0.00,WUHU216HW,2013-03-11 07:30:00,
2013-03-11 02:35:00,29.2,26.4,29.75,WNW,293,5.4,5.8,89,0.00,,,0.00,WUHU216HW,2013-03-11 07:35:00,
2013-03-11 02:40:00,29.2,26.1,29.75,WNW,293,2.5,5.8,88,0.00,,,0.00,WUHU216HW,2013-03-11 07:40:00,
2013-03-11 02:45:00,29.2,26.1,29.75,WNW,293,3.3,4.5,88,0.00,,,0.00,WUHU216HW,2013-03-11 07:45:00,
2013-03-11 02:50:00,29.0,25.9,29.75,WNW,293,3.2,4.9,88,0.00,,,0.00,WUHU216HW,2013-03-11 07:50:00,
2013-03-11 02:55:00,29.0,25.9,29.75,WNW,293,4.0,4.9,88,0.00,,,0.00,WUHU216HW,2013-03-11 07:55:00,
2013-03-11 03:00:00,29.0,25.9,29.75,WNW,293,4.0,5.6,88,0.00,,,0.00,WUHU216HW,2013-03-11 08:00:00,
2013-03-11 03:05:00,28.8,25.4,29.74,WNW,293,5.1,6.3,87,0.00,,,0.00,WUHU216HW,2013-03-11 08:05:00,
2013-03-11 03:10:00,28.8,25.8,29.75,WNW,293,7.4,7.4,88,0.00,,,0.00,WUHU216HW,2013-03-11 08:10:00,
2013-03-11 03:15:00,28.8,25.4,29.75,WNW,293,6.9,7.4,87,0.00,,,0.00,WUHU216HW,2013-03-11 08:15:00,
2013-03-11 03:20:00,28.6,25.6,29.75,WNW,293,2.9,7.4,88,0.00,,,0.00,WUHU216HW,2013-03-11 08:20:00,
2013-03-11 03:25:00,28.6,25.2,29.75,WNW,293,4.3,4.7,87,0.00,,,0.00,WUHU216HW,2013-03-11 08:25:00,
2013-03-11 03:30:00,28.6,25.6,29.75,WNW,293,6.9,6.9,88,0.00,,,0.00,WUHU216HW,2013-03-11 08:30:00,
2013-03-11 03:35:00,28.6,25.6,29.75,WNW,293,4.7,6.9,88,0.00,,,0.00,WUHU216HW,2013-03-11 08:35:00,
2013-03-11 03:40:00,28.4,25.4,29.75,WNW,293,5.1,5.8,88,0.00,,,0.00,WUHU216HW,2013-03-11 08:40:00,
2013-03-11 03:45:00,28.4,25.4,29.76,WNW,293,2.9,5.8,88,0.00,,,0.00,WUHU216HW,2013-03-11 08:45:00,
2013-03-11 03:50:00,28.4,25.4,29.77,WNW,293,4.0,4.0,88,0.00,,,0.00,WUHU216HW,2013-03-11 08:50:00,
2013-03-11 03:55:00,28.4,25.4,29.77,WNW,293,5.4,7.2,88,0.00,,,0.00,WUHU216HW,2013-03-11 08:55:00,
2013-03-11 04:00:00,28.3,25.2,29.78,WNW,293,2.5,7.6,88,0.00,,,0.00,WUHU216HW,2013-03-11 09:00:00,
2013-03-11 04:05:00,28.3,25.2,29.78,WNW,293,5.8,7.6,88,0.00,,,0.00,WUHU216HW,2013-03-11 09:05:00,
2013-03-11 04:10:00,28.3,25.5,29.78,WNW,293,1.4,5.8,89,0.00,,,0.00,WUHU216HW,2013-03-11 09:10:00,
2013-03-11 04:15:00,28.3,25.5,29.78,WNW,293,3.2,5.4,89,0.00,,,0.00,WUHU216HW,2013-03-11 09:15:00,
2013-03-11 04:20:00,28.1,25.3,29.78,WNW,293,1.6,4.7,89,0.00,,,0.00,WUHU216HW,2013-03-11 09:20:00,
2013-03-11 04:25:00,28.1,25.3,29.78,WNW,293,3.6,6.3,89,0.00,,,0.00,WUHU216HW,2013-03-11 09:25:00,
2013-03-11 04:30:00,28.1,25.3,29.78,WNW,293,3.6,6.3,89,0.00,,,0.00,WUHU216HW,2013-03-11 09:30:00,
2013-03-11 04:35:00,28.1,25.3,29.78,WNW,293,3.1,3.6,89,0.00,,,0.00,WUHU216HW,2013-03-11 09:35:00,
2013-03-11 04:40:00,28.1,25.6,29.77,WNW,293,4.3,4.3,90,0.00,,,0.00,WUHU216HW,2013-03-11 09:40:00,
2013-03-11 04:45:00,28.1,25.3,29.77,WNW,293,4.7,5.6,89,0.00,,,0.00,WUHU216HW,2013-03-11 09:45:00,
2013-03-11 04:50:00,27.9,25.1,29.77,WNW,293,6.9,6.9,89,0.00,,,0.00,WUHU216HW,2013-03-11 09:50:00,
2013-03-11 04:55:00,27.9,25.1,29.77,WNW,293,1.7,6.9,89,0.00,,,0.00,WUHU216HW,2013-03-11 09:55:00,
2013-03-11 05:00:00,27.9,25.1,29.77,WNW,293,2.5,6.0,89,0.00,,,0.00,WUHU216HW,2013-03-11 10:00:00,
2013-03-11 05:05:00,27.9,24.9,29.78,WNW,293,4.3,4.3,88,0.00,,,0.00,WUHU216HW,2013-03-11 10:05:00,
2013-03-11 05:10:00,27.7,24.7,29.78,WNW,293,5.0,6.9,88,0.00,,,0.00,WUHU216HW,2013-03-11 10:10:00,
2013-03-11 05:15:00,27.7,24.7,29.77,WNW,293,4.5,6.9,88,0.00,,,0.00,WUHU216HW,2013-03-11 10:15:00,
2013-03-11 05:20:00,27.7,24.7,29.77,WNW,293,5.1,6.0,88,0.00,,,0.00,WUHU216HW,2013-03-11 10:20:00,
2013-03-11 05:25:00,27.7,24.7,29.77,WNW,293,4.0,5.6,88,0.00,,,0.00,WUHU216HW,2013-03-11 10:25:00,
2013-03-11 05:30:00,27.7,24.7,29.77,WNW,293,5.8,5.8,88,0.00,,,0.00,WUHU216HW,2013-03-11 10:30:00,
2013-03-11 05:35:00,27.7,24.7,29.78,WNW,293,4.1,5.8,88,0.00,,,0.00,WUHU216HW,2013-03-11 10:35:00,
2013-03-11 05:40:00,27.7,24.7,29.78,WNW,293,5.4,5.4,88,0.00,,,0.00,WUHU216HW,2013-03-11 10:40:00,
2013-03-11 05:45:00,27.7,24.7,29.78,WNW,293,3.4,6.9,88,0.00,,,0.00,WUHU216HW,2013-03-11 10:45:00,
2013-03-11 05:50:00,27.7,24.3,29.78,WNW,293,5.9,6.9,87,0.00,,,0.00,WUHU216HW,2013-03-11 10:50:00,
2013-03-11 05:55:00,27.7,24.3,29.78,WNW,293,2.7,6.9,87,0.00,,,0.00,WUHU216HW,2013-03-11 10:55:00,
2013-03-11 06:00:00,27.5,23.9,29.78,WNW,293,5.4,5.4,86,0.00,,,0.00,WUHU216HW,2013-03-11 11:00:00,
2013-03-11 06:05:00,27.5,23.9,29.78,WNW,293,5.2,8.1,86,0.00,,,0.00,WUHU216HW,2013-03-11 11:05:00,
2013-03-11 06:10:00,27.5,23.9,29.78,WNW,293,4.0,8.1,86,0.00,,,0.00,WUHU216HW,2013-03-11 11:10:00,
2013-03-11 06:15:00,27.5,23.9,29.77,WNW,293,4.7,6.3,86,0.00,,,0.00,WUHU216HW,2013-03-11 11:15:00,
2013-03-11 06:20:00,27.5,23.6,29.78,WNW,293,6.4,7.8,85,0.00,,,0.00,WUHU216HW,2013-03-11 11:20:00,
2013-03-11 06:25:00,27.5,23.6,29.78,WNW,293,3.9,7.8,85,0.00,,,0.00,WUHU216HW,2013-03-11 11:25:00,
2013-03-11 06:30:00,27.5,23.9,29.78,WNW,293,4.0,4.9,86,0.00,,,0.00,WUHU216HW,2013-03-11 11:30:00,
2013-03-11 06:35:00,27.7,24.0,29.78,WNW,293,3.4,4.7,86,0.00,,,0.00,WUHU216HW,2013-03-11 11:35:00,
2013-03-11 06:40:00,27.7,24.0,29.78,WNW,293,2.5,6.3,86,0.00,,,0.00,WUHU216HW,2013-03-11 11:40:00,
2013-03-11 06:45:00,27.7,24.0,29.78,WNW,293,5.8,8.7,86,0.00,,,0.00,WUHU216HW,2013-03-11 11:45:00,
2013-03-11 06:50:00,27.7,24.3,29.78,WNW,293,6.5,8.7,87,0.00,,,0.00,WUHU216HW,2013-03-11 11:50:00,
2013-03-11 06:55:00,27.7,24.3,29.78,WNW,293,5.6,6.5,87,0.00,,,0.00,WUHU216HW,2013-03-11 11:55:00,
2013-03-11 07:00:00,27.7,24.0,29.78,WNW,293,4.2,6.9,86,0.00,,,0.00,WUHU216HW,2013-03-11 12:00:00,
2013-03-11 07:05:00,27.7,24.3,29.78,WNW,293,2.0,6.9,87,0.00,,,0.00,WUHU216HW,2013-03-11 12:05:00,
2013-03-11 07:10:00,27.7,24.0,29.78,WNW,293,5.1,7.2,86,0.00,,,0.00,WUHU216HW,2013-03-11 12:10:00,
2013-03-11 07:15:00,27.7,23.8,29.77,WNW,293,5.6,8.5,85,0.00,,,0.00,WUHU216HW,2013-03-11 12:15:00,
2013-03-11 07:20:00,27.7,23.8,29.78,WNW,293,5.1,8.5,85,0.00,,,0.00,WUHU216HW,2013-03-11 12:20:00,
2013-03-11 07:25:00,27.7,23.8,29.77,WNW,293,2.7,5.4,85,0.00,,,0.00,WUHU216HW,2013-03-11 12:25:00,
2013-03-11 07:30:00,27.7,23.8,29.78,WNW,293,3.3,5.4,85,0.00,,,0.00,WUHU216HW,2013-03-11 12:30:00,
2013-03-11 07:35:00,27.7,24.0,29.77,WNW,293,1.1,5.4,86,0.00,,,0.00,WUHU216HW,2013-03-11 12:35:00,
2013-03-11 07:40:00,27.7,23.8,29.77,WNW,293,1.8,4.9,85,0.00,,,0.00,WUHU216HW,2013-03-11 12:40:00,
2013-03-11 07:45:00,27.7,23.8,29.78,WNW,293,2.7,3.8,85,0.00,,,0.00,WUHU216HW,2013-03-11 12:45:00,
2013-03-11 07:50:00,27.7,23.8,29.78,WNW,293,4.0,4.0,85,0.00,,,0.00,WUHU216HW,2013-03-11 12:50:00,
2013-03-11 07:55:00,27.7,23.8,29.78,WNW,293,4.1,5.6,85,0.00,,,0.00,WUHU216HW,2013-03-11 12:55:00,
2013-03-11 08:00:00,27.7,23.8,29.78,WNW,293,4.5,6.3,85,0.00,,,0.00,WUHU216HW,2013-03-11 13:00:00,
2013-03-11 08:05:00,27.7,23.8,29.78,WNW,293,5.4,6.3,85,0.00,,,0.00,WUHU216HW,2013-03-11 13:05:00,
2013-03-11 08:10:00,27.7,24.0,29.78,WNW,293,3.9,5.6,86,0.00,,,0.00,WUHU216HW,2013-03-11 13:10:00,
2013-03-11 08:15:00,27.9,24.2,29.78,WNW,293,2.2,4.7,86,0.00,,,0.00,WUHU216HW,2013-03-11 13:15:00,
2013-03-11 08:20:00,27.9,23.9,29.78,WNW,293,5.1,5.1,85,0.00,,,0.00,WUHU216HW,2013-03-11 13:20:00,
2013-03-11 08:25:00,27.9,23.9,29.78,WNW,293,5.1,5.1,85,0.00,,,0.00,WUHU216HW,2013-03-11 13:25:00,
2013-03-11 08:30:00,28.1,24.1,29.78,WNW,293,5.1,5.1,85,0.00,,,0.00,WUHU216HW,2013-03-11 13:30:00,
2013-03-11 08:35:00,28.1,24.1,29.78,WNW,293,4.0,5.1,85,0.00,,,0.00,WUHU216HW,2013-03-11 13:35:00,
2013-03-11 08:40:00,28.1,24.1,29.79,WNW,293,5.4,5.4,85,0.00,,,0.00,WUHU216HW,2013-03-11 13:40:00,
2013-03-11 08:45:00,28.1,24.1,29.79,WNW,293,5.8,5.8,85,0.00,,,0.00,WUHU216HW,2013-03-11 13:45:00,
2013-03-11 08:50:00,28.1,24.1,29.79,WNW,293,2.5,5.8,85,0.00,,,0.00,WUHU216HW,2013-03-11 13:50:00,
2013-03-11 08:55:00,28.3,24.6,29.79,WNW,293,1.8,3.6,86,0.00,,,0.00,WUHU216HW,2013-03-11 13:55:00,
2013-03-11 09:00:00,28.3,24.8,29.80,WNW,293,2.0,4.7,87,0.00,,,0.00,WUHU216HW,2013-03-11 14:00:00,
2013-03-11 09:05:00,28.4,25.0,29.80,WNW,293,4.3,5.8,87,0.00,,,0.00,WUHU216HW,2013-03-11 14:05:00,
2013-03-11 09:10:00,28.4,24.8,29.80,WNW,293,3.3,5.8,86,0.00,,,0.00,WUHU216HW,2013-03-11 14:10:00,
2013-03-11 09:15:00,28.4,24.8,29.80,WNW,293,1.3,4.7,86,0.00,,,0.00,WUHU216HW,2013-03-11 14:15:00,
2013-03-11 09:20:00,28.4,24.8,29.80,WNW,293,4.7,5.4,86,0.00,,,0.00,WUHU216HW,2013-03-11 14:20:00,
2013-03-11 09:25:00,28.4,24.8,29.81,WNW,293,6.3,6.3,86,0.00,,,0.00,WUHU216HW,2013-03-11 14:25:00,
2013-03-11 09:30:00,28.4,24.8,29.81,WNW,293,5.6,6.5,86,0.00,,,0.00,WUHU216HW,2013-03-11 14:30:00,
2013-03-11 09:35:00,28.6,24.9,29.82,WNW,293,4.3,6.5,86,0.00,,,0.00,WUHU216HW,2013-03-11 14:35:00,
2013-03-11 09:40:00,28.6,24.4,29.82,WNW,293,3.1,6.7,84,0.00,,,0.00,WUHU216HW,2013-03-11 14:40:00,
2013-03-11 09:45:00,28.4,24.5,29.82,WNW,293,4.3,9.8,85,0.00,,,0.00,WUHU216HW,2013-03-11 14:45:00,
2013-03-11 09:50:00,28.4,24.2,29.82,WNW,293,4.1,9.8,84,0.00,,,0.00,WUHU216HW,2013-03-11 14:50:00,
2013-03-11 09:55:00,28.6,24.4,29.82,WNW,293,5.9,9.4,84,0.00,,,0.00,WUHU216HW,2013-03-11 14:55:00,
2013-03-11 10:00:00,28.4,24.2,29.82,WNW,293,3.1,6.7,84,0.00,,,0.00,WUHU216HW,2013-03-11 15:00:00,
2013-03-11 10:05:00,28.6,24.4,29.82,WNW,293,5.3,6.7,84,0.00,,,0.00,WUHU216HW,2013-03-11 15:05:00,
2013-03-11 10:10:00,28.6,24.4,29.82,WNW,293,3.4,6.7,84,0.00,,,0.00,WUHU216HW,2013-03-11 15:10:00,
2013-03-11 10:15:00,28.6,24.1,29.82,WNW,293,3.7,6.3,83,0.00,,,0.00,WUHU216HW,2013-03-11 15:15:00,
2013-03-11 10:20:00,28.8,24.3,29.82,WNW,293,1.5,6.3,83,0.00,,,0.00,WUHU216HW,2013-03-11 15:20:00,
2013-03-11 10:25:00,28.8,24.6,29.82,WNW,293,2.5,4.0,84,0.00,,,0.00,WUHU216HW,2013-03-11 15:25:00,
2013-03-11 10:30:00,29.2,24.9,29.82,WNW,293,3.3,4.3,84,0.00,,,0.00,WUHU216HW,2013-03-11 15:30:00,
2013-03-11 10:35:00,29.3,24.9,29.82,WNW,293,2.5,4.3,83,0.00,,,0.00,WUHU216HW,2013-03-11 15:35:00,
2013-03-11 10:40:00,29.3,24.9,29.82,WNW,293,1.8,4.5,83,0.00,,,0.00,WUHU216HW,2013-03-11 15:40:00,
2013-03-11 10:45:00,29.2,24.7,29.83,WNW,293,4.9,6.3,83,0.00,,,0.00,WUHU216HW,2013-03-11 15:45:00,
2013-03-11 10:50:00,29.2,24.7,29.83,WNW,293,5.4,6.9,83,0.00,,,0.00,WUHU216HW,2013-03-11 15:50:00,
2013-03-11 10:55:00,29.2,24.7,29.83,WNW,293,6.7,6.9,83,0.00,,,0.00,WUHU216HW,2013-03-11 15:55:00,
2013-03-11 11:00:00,29.2,24.7,29.83,WNW,293,4.9,7.4,83,0.00,,,0.00,WUHU216HW,2013-03-11 16:00:00,
2013-03-11 11:05:00,29.3,24.2,29.83,WNW,293,4.5,7.4,81,0.00,,,0.00,WUHU216HW,2013-03-11 16:05:00,
2013-03-11 11:10:00,29.5,24.7,29.83,WNW,293,4.5,5.6,82,0.00,,,0.00,WUHU216HW,2013-03-11 16:10:00,
2013-03-11 11:15:00,29.7,24.8,29.83,WNW,293,3.8,4.7,82,0.00,,,0.00,WUHU216HW,2013-03-11 16:15:00,
2013-03-11 11:20:00,29.5,24.4,29.83,WNW,293,6.3,6.3,81,0.00,,,0.00,WUHU216HW,2013-03-11 16:20:00,
2013-03-11 11:25:00,29.5,24.4,29.84,WNW,293,3.4,6.3,81,0.00,,,0.00,WUHU216HW,2013-03-11 16:25:00,
2013-03-11 11:30:00,29.5,24.4,29.84,WNW,293,4.6,5.8,81,0.00,,,0.00,WUHU216HW,2013-03-11 16:30:00,
2013-03-11 11:35:00,29.9,24.8,29.84,WNW,293,3.0,5.8,81,0.00,,,0.00,WUHU216HW,2013-03-11 16:35:00,
2013-03-11 11:40:00,30.1,24.9,29.84,WNW,293,3.9,6.3,81,0.00,,,0.00,WUHU216HW,2013-03-11 16:40:00,
2013-03-11 11:45:00,30.2,25.4,29.84,WNW,293,2.9,6.3,82,0.00,,,0.00,WUHU216HW,2013-03-11 16:45:00,
2013-03-11 11:50:00,30.6,25.7,29.83,WNW,293,2.5,5.4,82,0.00,,,0.00,WUHU216HW,2013-03-11 16:50:00,
2013-03-11 11:55:00,30.8,25.7,29.83,WNW,293,4.0,4.0,81,0.00,,,0.00,WUHU216HW,2013-03-11 16:55:00,
2013-03-11 12:00:00,31.3,25.6,29.83,WNW,293,3.2,4.0,79,0.00,,,0.00,WUHU216HW,2013-03-11 17:00:00,
2013-03-11 12:05:00,31.5,26.1,29.83,WNW,293,5.1,5.1,80,0.00,,,0.00,WUHU216HW,2013-03-11 17:05:00,
2013-03-11 12:10:00,31.3,25.6,29.83,WNW,293,5.3,6.0,79,0.00,,,0.00,WUHU216HW,2013-03-11 17:10:00,
2013-03-11 12:15:00,31.5,25.7,29.83,WNW,293,4.2,6.0,79,0.00,,,0.00,WUHU216HW,2013-03-11 17:15:00,
2013-03-11 12:20:00,31.9,26.5,29.83,WNW,293,3.7,5.8,80,0.00,,,0.00,WUHU216HW,2013-03-11 17:20:00,
2013-03-11 12:25:00,32.4,27.0,29.83,West,270,4.7,4.9,80,0.00,,,0.00,WUHU216HW,2013-03-11 17:25:00,
2013-03-11 12:30:00,32.4,26.6,29.83,West,270,7.2,7.2,79,0.00,,,0.00,WUHU216HW,2013-03-11 17:30:00,
2013-03-11 12:35:00,32.6,27.1,29.83,West,270,3.2,7.2,80,0.00,,,0.00,WUHU216HW,2013-03-11 17:35:00,
2013-03-11 12:40:00,32.9,27.5,29.83,NW,315,2.1,5.1,80,0.00,,,0.00,WUHU216HW,2013-03-11 17:40:00,
2013-03-11 12:45:00,33.7,27.8,29.83,NNW,338,3.4,4.7,79,0.00,,,0.00,WUHU216HW,2013-03-11 17:45:00,
2013-03-11 12:50:00,33.7,27.1,29.83,ENE,68,4.7,4.7,77,0.00,,,0.00,WUHU216HW,2013-03-11 17:50:00,
2013-03-11 12:55:00,33.7,27.1,29.83,NW,315,3.8,4.7,77,0.00,,,0.00,WUHU216HW,2013-03-11 17:55:00,
2013-03-11 13:00:00,34.0,28.1,29.83,North,0,2.9,4.7,79,0.00,,,0.00,WUHU216HW,2013-03-11 18:00:00,
2013-03-11 13:05:00,34.2,27.6,29.83,WSW,255,3.0,6.7,77,0.00,,,0.00,WUHU216HW,2013-03-11 18:05:00,
2013-03-11 13:10:00,34.0,27.5,29.83,NW,307,5.4,6.9,77,0.00,,,0.00,WUHU216HW,2013-03-11 18:10:00,
2013-03-11 13:15:00,34.2,27.6,29.83,WNW,293,4.7,6.9,77,0.00,,,0.00,WUHU216HW,2013-03-11 18:15:00,
2013-03-11 13:20:00,34.4,27.8,29.83,NW,315,6.9,6.9,77,0.00,,,0.00,WUHU216HW,2013-03-11 18:20:00,
2013-03-11 13:25:00,34.2,28.0,29.83,NW,315,4.3,6.9,78,0.00,,,0.00,WUHU216HW,2013-03-11 18:25:00,
2013-03-11 13:30:00,34.2,27.6,29.83,West,270,5.4,5.4,77,0.00,,,0.00,WUHU216HW,2013-03-11 18:30:00,
2013-03-11 13:35:00,34.6,28.0,29.83,West,266,3.1,5.4,77,0.00,,,0.00,WUHU216HW,2013-03-11 18:35:00,
2013-03-11 13:40:00,34.2,27.6,29.82,NW,315,4.5,5.6,77,0.00,,,0.00,WUHU216HW,2013-03-11 18:40:00,
2013-03-11 13:45:00,34.2,28.0,29.83,West,260,2.3,5.6,78,0.00,,,0.00,WUHU216HW,2013-03-11 18:45:00,
2013-03-11 13:50:00,34.0,27.8,29.83,West,275,4.1,4.7,78,0.00,,,0.00,WUHU216HW,2013-03-11 18:50:00,
2013-03-11 13:55:00,34.2,28.0,29.82,West,278,4.1,5.4,78,0.00,,,0.00,WUHU216HW,2013-03-11 18:55:00,
2013-03-11 14:00:00,34.6,28.4,29.82,West,279,2.5,5.4,78,0.00,,,0.00,WUHU216HW,2013-03-11 19:00:00,
2013-03-11 14:05:00,34.9,28.1,29.82,SSW,203,5.4,5.4,76,0.00,,,0.00,WUHU216HW,2013-03-11 19:05:00,
2013-03-11 14:10:00,35.3,28.7,29.82,North,0,1.8,6.9,77,0.00,,,0.00,WUHU216HW,2013-03-11 19:10:00,
2013-03-11 14:15:00,36.0,29.2,29.81,West,263,4.9,6.9,76,0.00,,,0.00,WUHU216HW,2013-03-11 19:15:00,
2013-03-11 14:20:00,36.4,28.5,29.81,WSW,244,3.6,6.3,73,0.00,,,0.00,WUHU216HW,2013-03-11 19:20:00,
2013-03-11 14:25:00,36.4,29.2,29.80,NW,315,2.0,4.3,75,0.00,,,0.00,WUHU216HW,2013-03-11 19:25:00,
2013-03-11 14:30:00,37.3,29.4,29.80,NW,306,1.5,3.8,73,0.00,,,0.00,WUHU216HW,2013-03-11 19:30:00,
2013-03-11 14:35:00,37.4,29.9,29.80,North,0,3.1,3.1,74,0.00,,,0.00,WUHU216HW,2013-03-11 19:35:00,
2013-03-11 14:40:00,37.1,28.9,29.80,NW,315,3.9,4.7,72,0.00,,,0.00,WUHU216HW,2013-03-11 19:40:00,
2013-03-11 14:45:00,37.4,29.0,29.80,NW,325,4.6,5.4,71,0.00,,,0.00,WUHU216HW,2013-03-11 19:45:00,
2013-03-11 14:50:00,38.0,29.4,29.80,NW,315,3.2,5.4,71,0.00,,,0.00,WUHU216HW,2013-03-11 19:50:00,
2013-03-11 14:55:00,38.5,28.8,29.81,SW,225,7.4,7.4,68,0.00,,,0.00,WUHU216HW,2013-03-11 19:55:00,
2013-03-11 15:00:00,39.1,30.1,29.81,West,270,5.6,9.2,70,0.00,,,0.00,WUHU216HW,2013-03-11 20:00:00,
2013-03-11 15:05:00,40.0,30.3,29.81,NW,325,3.2,9.2,68,0.00,,,0.00,WUHU216HW,2013-03-11 20:05:00,
2013-03-11 15:10:00,39.6,29.4,29.81,WNW,286,4.5,7.4,67,0.00,,,0.00,WUHU216HW,2013-03-11 20:10:00,
2013-03-11 15:15:00,39.2,28.7,29.81,WNW,290,5.5,7.4,66,0.00,,,0.00,WUHU216HW,2013-03-11 20:15:00,
2013-03-11 15:20:00,39.2,29.1,29.81,NW,315,3.5,6.7,67,0.00,,,0.00,WUHU216HW,2013-03-11 20:20:00,
2013-03-11 15:25:00,38.9,28.0,29.82,NW,315,5.8,5.8,65,0.00,,,0.00,WUHU216HW,2013-03-11 20:25:00,
2013-03-11 15:30:00,38.7,28.3,29.81,NW,326,4.3,5.8,66,0.00,,,0.00,WUHU216HW,2013-03-11 20:30:00,
2013-03-11 15:35:00,39.4,27.8,29.81,WNW,300,4.4,6.3,63,0.00,,,0.00,WUHU216HW,2013-03-11 20:35:00,
2013-03-11 15:40:00,39.4,28.5,29.82,NW,313,3.2,6.3,65,0.00,,,0.00,WUHU216HW,2013-03-11 20:40:00,
2013-03-11 15:45:00,39.8,28.5,29.82,West,270,4.7,8.5,64,0.00,,,0.00,WUHU216HW,2013-03-11 20:45:00,
2013-03-11 15:50:00,40.1,28.5,29.81,NW,315,3.1,8.5,63,0.00,,,0.00,WUHU216HW,2013-03-11 20:50:00,
2013-03-11 15:55:00,40.0,28.4,29.82,NW,315,6.7,6.9,63,0.00,,,0.00,WUHU216HW,2013-03-11 20:55:00,
2013-03-11 16:00:00,40.3,29.4,29.82,NNW,338,3.4,6.9,65,0.00,,,0.00,WUHU216HW,2013-03-11 21:00:00,
2013-03-11 16:05:00,40.7,29.8,29.81,West,270,6.3,6.3,65,0.00,,,0.00,WUHU216HW,2013-03-11 21:05:00,
2013-03-11 16:10:00,41.4,29.7,29.81,West,270,4.9,6.9,63,0.00,,,0.00,WUHU216HW,2013-03-11 21:10:00,
2013-03-11 16:15:00,41.6,29.9,29.82,North,0,4.0,6.9,63,0.00,,,0.00,WUHU216HW,2013-03-11 21:15:00,
2013-03-11 16:20:00,41.6,27.9,29.82,West,270,5.6,6.9,58,0.00,,,0.00,WUHU216HW,2013-03-11 21:20:00,
2013-03-11 16:25:00,41.4,28.2,29.82,WNW,293,2.5,6.9,59,0.00,,,0.00,WUHU216HW,2013-03-11 21:25:00,
2013-03-11 16:30:00,41.6,28.3,29.82,NNW,328,6.9,7.2,59,0.00,,,0.00,WUHU216HW,2013-03-11 21:30:00,
2013-03-11 16:35:00,41.6,28.3,29.82,WSW,248,4.4,8.7,59,0.00,,,0.00,WUHU216HW,2013-03-11 21:35:00,
2013-03-11 16:40:00,41.9,29.1,29.82,West,274,4.7,8.7,60,0.00,,,0.00,WUHU216HW,2013-03-11 21:40:00,
2013-03-11 16:45:00,41.8,28.0,29.82,SSW,203,4.0,5.4,58,0.00,,,0.00,WUHU216HW,2013-03-11 21:45:00,
2013-03-11 16:50:00,42.1,27.9,29.81,WSW,248,6.9,6.9,57,0.00,,,0.00,WUHU216HW,2013-03-11 21:50:00,
2013-03-11 16:55:00,42.7,27.1,29.82,WSW,248,8.5,8.5,54,0.00,,,0.00,WUHU216HW,2013-03-11 21:55:00,
2013-03-11 17:00:00,42.5,27.4,29.82,WSW,248,5.4,8.5,55,0.00,,,0.00,WUHU216HW,2013-03-11 22:00:00,
2013-03-11 17:05:00,42.3,26.7,29.82,SW,225,4.0,5.4,54,0.00,,,0.00,WUHU216HW,2013-03-11 22:05:00,
2013-03-11 17:10:00,42.1,26.7,29.82,WSW,241,3.7,6.0,54,0.00,,,0.00,WUHU216HW,2013-03-11 22:10:00,
2013-03-11 17:15:00,42.1,26.2,29.83,NNW,338,6.5,6.5,53,0.00,,,0.00,WUHU216HW,2013-03-11 22:15:00,
2013-03-11 17:20:00,42.1,27.9,29.82,NNW,338,3.4,6.5,57,0.00,,,0.00,WUHU216HW,2013-03-11 22:20:00,
2013-03-11 17:25:00,41.9,26.0,29.82,WSW,258,3.6,4.5,53,0.00,,,0.00,WUHU216HW,2013-03-11 22:25:00,
2013-03-11 17:30:00,41.9,26.9,29.82,NW,315,3.4,4.5,55,0.00,,,0.00,WUHU216HW,2013-03-11 22:30:00,
2013-03-11 17:35:00,42.3,26.4,29.82,WNW,303,5.9,7.4,53,0.00,,,0.00,WUHU216HW,2013-03-11 22:35:00,
2013-03-11 17:40:00,42.3,26.7,29.82,WNW,291,3.8,7.4,54,0.00,,,0.00,WUHU216HW,2013-03-11 22:40:00,
2013-03-11 17:45:00,43.0,27.0,29.82,West,259,4.5,6.7,53,0.00,,,0.00,WUHU216HW,2013-03-11 22:45:00,
2013-03-11 17:50:00,42.3,25.5,29.82,West,270,6.9,6.9,51,0.00,,,0.00,WUHU216HW,2013-03-11 22:50:00,
2013-03-11 17:55:00,41.9,26.0,29.82,West,276,2.5,6.9,53,0.00,,,0.00,WUHU216HW,2013-03-11 22:55:00,
2013-03-11 18:00:00,42.3,25.9,29.82,WNW,293,4.5,5.4,52,0.00,,,0.00,WUHU216HW,2013-03-11 23:00:00,
2013-03-11 18:05:00,42.8,26.8,29.83,WNW,303,3.1,5.4,53,0.00,,,0.00,WUHU216HW,2013-03-11 23:05:00,
2013-03-11 18:10:00,42.7,26.6,29.83,NW,315,3.4,4.7,53,0.00,,,0.00,WUHU216HW,2013-03-11 23:10:00,
2013-03-11 18:15:00,42.1,26.2,29.83,WNW,293,4.3,4.7,53,0.00,,,0.00,WUHU216HW,2013-03-11 23:15:00,
2013-03-11 18:20:00,41.9,26.5,29.83,WSW,248,3.6,4.7,54,0.00,,,0.00,WUHU216HW,2013-03-11 23:20:00,
2013-03-11 18:25:00,41.9,26.5,29.83,WNW,288,3.2,4.7,54,0.00,,,0.00,WUHU216HW,2013-03-11 23:25:00,
2013-03-11 18:30:00,41.9,26.0,29.83,WSW,248,5.4,5.4,53,0.00,,,0.00,WUHU216HW,2013-03-11 23:30:00,
2013-03-11 18:35:00,41.2,25.3,29.83,SW,236,4.3,5.4,53,0.00,,,0.00,WUHU216HW,2013-03-11 23:35:00,
2013-03-11 18:40:00,40.7,25.7,29.83,NW,315,2.7,4.7,55,0.00,,,0.00,WUHU216HW,2013-03-11 23:40:00,
2013-03-11 18:45:00,40.3,25.7,29.83,West,270,3.6,4.5,56,0.00,,,0.00,WUHU216HW,2013-03-11 23:45:00,
2013-03-11 18:50:00,40.0,25.0,29.84,SW,225,3.4,4.7,55,0.00,,,0.00,WUHU216HW,2013-03-11 23:50:00,
2013-03-11 18:55:00,39.8,24.9,29.83,NW,311,2.3,4.7,55,0.00,,,0.00,WUHU216HW,2013-03-11 23:55:00,
2013-03-11 19:00:00,39.6,25.1,29.84,West,270,2.3,4.0,56,0.00,,,0.00,WUHU216HW,2013-03-12 00:00:00,
2013-03-11 19:05:00,39.2,24.8,29.84,SW,225,4.7,4.7,56,0.00,,,0.00,WUHU216HW,2013-03-12 00:05:00,
2013-03-11 19:10:00,39.2,24.8,29.84,West,270,3.1,4.7,56,0.00,,,0.00,WUHU216HW,2013-03-12 00:10:00,
2013-03-11 19:15:00,38.9,24.8,29.84,NW,315,1.1,3.1,57,0.00,,,0.00,WUHU216HW,2013-03-12 00:15:00,
2013-03-11 19:20:00,38.7,25.1,29.84,NNW,333,0.4,2.0,58,0.00,,,0.00,WUHU216HW,2013-03-12 00:20:00,
2013-03-11 19:25:00,38.5,25.4,29.84,WSW,246,0.3,1.8,59,0.00,,,0.00,WUHU216HW,2013-03-12 00:25:00,
2013-03-11 19:30:00,38.2,25.0,29.84,WSW,248,0.4,2.5,59,0.00,,,0.00,WUHU216HW,2013-03-12 00:30:00,
2013-03-11 19:35:00,37.8,24.8,29.84,WNW,293,0.3,2.5,59,0.00,,,0.00,WUHU216HW,2013-03-12 00:35:00,
2013-03-11 19:40:00,37.6,25.0,29.85,NW,315,0.2,0.9,60,0.00,,,0.00,WUHU216HW,2013-03-12 00:40:00,
2013-03-11 19:45:00,37.3,24.7,29.85,NW,315,0.1,1.1,60,0.00,,,0.00,WUHU216HW,2013-03-12 00:45:00,
2013-03-11 19:50:00,36.9,24.8,29.85,NW,315,0.4,1.1,61,0.00,,,0.00,WUHU216HW,2013-03-12 00:50:00,
2013-03-11 19:55:00,36.5,24.8,29.86,WNW,298,0.8,1.3,62,0.00,,,0.00,WUHU216HW,2013-03-12 00:55:00,
2013-03-11 20:00:00,36.4,24.6,29.86,NW,315,0.2,1.3,62,0.00,,,0.00,WUHU216HW,2013-03-12 01:00:00,
2013-03-11 20:05:00,36.0,24.3,29.86,NW,315,0.0,0.2,62,0.00,,,0.00,WUHU216HW,2013-03-12 01:05:00,
2013-03-11 20:10:00,36.0,24.7,29.86,NW,315,0.0,0.4,63,0.00,,,0.00,WUHU216HW,2013-03-12 01:10:00,
2013-03-11 20:15:00,35.6,24.3,29.86,NW,315,0.0,0.7,63,0.00,,,0.00,WUHU216HW,2013-03-12 01:15:00,
2013-03-11 20:20:00,35.6,24.7,29.86,NNW,338,0.7,0.7,64,0.00,,,0.00,WUHU216HW,2013-03-12 01:20:00,
2013-03-11 20:25:00,35.5,24.5,29.86,WNW,293,0.0,1.1,64,0.00,,,0.00,WUHU216HW,2013-03-12 01:25:00,
2013-03-11 20:30:00,35.3,24.3,29.86,NW,315,0.0,1.1,64,0.00,,,0.00,WUHU216HW,2013-03-12 01:30:00,
2013-03-11 20:35:00,34.9,23.9,29.86,NW,315,0.0,0.0,64,0.00,,,0.00,WUHU216HW,2013-03-12 01:35:00,
2013-03-11 20:40:00,34.7,23.8,29.86,WSW,248,0.0,0.0,64,0.00,,,0.00,WUHU216HW,2013-03-12 01:40:00,
2013-03-11 20:45:00,34.4,23.8,29.86,WSW,248,0.0,0.0,65,0.00,,,0.00,WUHU216HW,2013-03-12 01:45:00,
2013-03-11 20:50:00,34.2,23.6,29.86,WSW,248,0.0,0.4,65,0.00,,,0.00,WUHU216HW,2013-03-12 01:50:00,
2013-03-11 20:55:00,34.2,23.6,29.86,WSW,248,0.2,0.4,65,0.00,,,0.00,WUHU216HW,2013-03-12 01:55:00,
2013-03-11 21:00:00,33.8,23.6,29.86,WSW,248,0.0,0.4,66,0.00,,,0.00,WUHU216HW,2013-03-12 02:00:00,
2013-03-11 21:05:00,33.7,23.4,29.86,WSW,248,0.0,0.0,66,0.00,,,0.00,WUHU216HW,2013-03-12 02:05:00,
2013-03-11 21:10:00,33.5,23.6,29.86,West,270,0.0,0.2,67,0.00,,,0.00,WUHU216HW,2013-03-12 02:10:00,
2013-03-11 21:15:00,33.3,23.5,29.86,West,270,0.0,0.2,67,0.00,,,0.00,WUHU216HW,2013-03-12 02:15:00,
2013-03-11 21:20:00,33.1,23.3,29.87,West,270,0.0,0.0,67,0.00,,,0.00,WUHU216HW,2013-03-12 02:20:00,
2013-03-11 21:25:00,32.8,23.3,29.87,West,270,0.0,0.0,68,0.00,,,0.00,WUHU216HW,2013-03-12 02:25:00,
2013-03-11 21:30:00,32.6,23.1,29.88,West,270,0.0,0.0,68,0.00,,,0.00,WUHU216HW,2013-03-12 02:30:00,
2013-03-11 21:35:00,32.4,23.4,29.88,West,270,0.1,0.2,69,0.00,,,0.00,WUHU216HW,2013-03-12 02:35:00,
2013-03-11 21:40:00,32.4,23.8,29.88,West,270,0.0,0.2,70,0.00,,,0.00,WUHU216HW,2013-03-12 02:40:00,
2013-03-11 21:45:00,32.2,23.6,29.88,West,270,0.0,0.0,70,0.00,,,0.00,WUHU216HW,2013-03-12 02:45:00,
2013-03-11 21:50:00,32.2,23.6,29.88,WNW,293,0.0,0.2,70,0.00,,,0.00,WUHU216HW,2013-03-12 02:50:00,
2013-03-11 21:55:00,32.0,23.0,29.89,WNW,293,0.0,0.2,69,0.00,,,0.00,WUHU216HW,2013-03-12 02:55:00,
2013-03-11 22:00:00,32.0,23.4,29.89,West,270,0.0,0.4,70,0.00,,,0.00,WUHU216HW,2013-03-12 03:00:00,
2013-03-11 22:05:00,32.4,23.8,29.90,NW,315,0.7,0.7,70,0.00,,,0.00,WUHU216HW,2013-03-12 03:05:00,
2013-03-11 22:10:00,32.8,24.0,29.89,WNW,293,0.3,0.7,70,0.00,,,0.00,WUHU216HW,2013-03-12 03:10:00,
2013-03-11 22:15:00,32.8,24.0,29.90,WNW,293,0.0,0.4,70,0.00,,,0.00,WUHU216HW,2013-03-12 03:15:00,
2013-03-11 22:20:00,32.6,23.5,29.90,WNW,293,0.0,0.2,69,0.00,,,0.00,WUHU216HW,2013-03-12 03:20:00,
2013-03-11 22:25:00,32.2,23.2,29.90,WSW,248,0.0,0.2,69,0.00,,,0.00,WUHU216HW,2013-03-12 03:25:00,
2013-03-11 22:30:00,32.2,23.6,29.90,WSW,248,0.0,0.0,70,0.00,,,0.00,WUHU216HW,2013-03-12 03:30:00,
2013-03-11 22:35:00,32.2,23.6,29.90,WSW,248,0.0,0.0,70,0.00,,,0.00,WUHU216HW,2013-03-12 03:35:00,
2013-03-11 22:40:00,32.0,23.4,29.90,WSW,248,0.0,0.0,70,0.00,,,0.00,WUHU216HW,2013-03-12 03:40:00,
2013-03-11 22:45:00,31.7,23.0,29.90,WSW,248,0.0,0.0,70,0.00,,,0.00,WUHU216HW,2013-03-12 03:45:00,
2013-03-11 22:50:00,31.5,22.9,29.91,WSW,248,0.0,0.0,70,0.00,,,0.00,WUHU216HW,2013-03-12 03:50:00,
2013-03-11 22:55:00,31.3,22.7,29.91,WSW,248,0.0,0.0,70,0.00,,,0.00,WUHU216HW,2013-03-12 03:55:00,
2013-03-11 23:00:00,31.0,22.3,29.91,WSW,248,0.0,0.0,70,0.00,,,0.00,WUHU216HW,2013-03-12 04:00:00,
2013-03-11 23:05:00,30.8,22.5,29.91,WSW,248,0.0,0.0,71,0.00,,,0.00,WUHU216HW,2013-03-12 04:05:00,
2013-03-11 23:10:00,30.6,22.3,29.91,WSW,248,0.0,0.0,71,0.00,,,0.00,WUHU216HW,2013-03-12 04:10:00,
2013-03-11 23:15:00,30.6,23.2,29.91,WSW,248,0.0,0.0,74,0.00,,,0.00,WUHU216HW,2013-03-12 04:15:00,
2013-03-11 23:20:00,30.6,23.0,29.91,WSW,248,0.0,0.0,73,0.00,,,0.00,WUHU216HW,2013-03-12 04:20:00,
2013-03-11 23:25:00,30.6,23.2,29.90,WSW,248,0.0,0.0,74,0.00,,,0.00,WUHU216HW,2013-03-12 04:25:00,
2013-03-11 23:30:00,30.4,22.8,29.90,WSW,248,0.0,0.0,73,0.00,,,0.00,WUHU216HW,2013-03-12 04:30:00,
2013-03-11 23:35:00,30.2,22.6,29.91,WSW,248,0.0,0.0,73,0.00,,,0.00,WUHU216HW,2013-03-12 04:35:00,
2013-03-11 23:40:00,30.1,22.4,29.90,WSW,248,0.0,0.0,73,0.00,,,0.00,WUHU216HW,2013-03-12 04:40:00,
2013-03-11 23:45:00,29.9,22.6,29.90,WSW,248,0.0,0.0,74,0.00,,,0.00,WUHU216HW,2013-03-12 04:45:00,
2013-03-11 23:50:00,29.9,22.9,29.90,South,180,0.1,0.4,75,0.00,,,0.00,WUHU216HW,2013-03-12 04:50:00,
2013-03-11 23:55:00,29.9,22.9,29.90,South,180,0.0,0.4,75,0.00,,,0.00,WUHU216HW,2013-03-12 04:55:00,